This is the latest recevied weather packets stored in our database for station/object 9A7DI-13. If no packets are shown the sender has not sent any weather packets the latest 1 day(s).
| Time | Temp. | Humidity | Pressure | Rain* | Wind** | Luminosity | Snow |
|---|---|---|---|---|---|---|---|
| 1778141826 | 15.56° C | 76% | 1023.2 hPa | - | - | - | - |
| 1778141226 | 15.56° C | 84% | 1023 hPa | - | - | - | - |
| 1778140626 | 15.56° C | 84% | 1022.9 hPa | - | - | - | - |
| 1778140026 | 15° C | 84% | 1022.8 hPa | - | - | - | - |
| 1778139426 | 15° C | 85% | 1022.7 hPa | - | - | - | - |
| 1778138226 | 15° C | 82% | 1022.6 hPa | - | - | - | - |
| 1778135826 | 14.44° C | 86% | 1022.7 hPa | - | - | - | - |
| 1778134626 | 15° C | 84% | 1022.8 hPa | - | - | - | - |
| 1778134026 | 15° C | 82% | 1022.4 hPa | - | - | - | - |
| 1778133426 | 15° C | 83% | 1022.2 hPa | - | - | - | - |
| 1778132826 | 15° C | 82% | 1022.1 hPa | - | - | - | - |
| 1778132226 | 14.44° C | 83% | 1022.2 hPa | - | - | - | - |
| 1778130426 | 14.44° C | 84% | 1022.2 hPa | - | - | - | - |
| 1778129826 | 13.89° C | 84% | 1022.2 hPa | - | - | - | - |
| 1778129226 | 13.89° C | 84% | 1022 hPa | - | - | - | - |
| 1778128626 | 13.89° C | 83% | 1021.8 hPa | - | - | - | - |
| 1778126826 | 13.89° C | 86% | 1021.3 hPa | - | - | - | - |
| 1778124427 | 13.89° C | 85% | 1021.1 hPa | - | - | - | - |
| 1778123226 | 13.33° C | 86% | 1020.9 hPa | - | - | - | - |
| 1778122626 | 13.33° C | 84% | 1021 hPa | - | - | - | - |
| 1778121426 | 13.33° C | 83% | 1020.9 hPa | - | - | - | - |
| 1778111827 | 15.56° C | 81% | 1020.5 hPa | - | - | - | - |
| 1778111227 | 15.56° C | 80% | 1020.6 hPa | - | - | - | - |
| 1778110627 | 15.56° C | 80% | 1020.5 hPa | - | - | - | - |
| 1778109427 | 16.11° C | 81% | 1020.6 hPa | - | - | - | - |
* Rain since midnight (hover to see other rain measurements)
** Current wind speed in m/s (hover to see current wind gust speed)